Location: Unspecified
(35.7250°N, 0.0000°E)
Time: 13:36:10
(UTC+00:00)

Explorer 7 - Pass Details

Date: 22 August 2020
Orbit: 485 x 679 km, 50.3° (Epoch: 21 September)

Event Time Altitude Azimuth Distance (km) Brightness Sun altitude
Rises 21:19:25 0° 310° (NW) 2,623 11.5 -29.1°
Reaches altitude 10° 21:21:40 10° 311° (NW) 1,711 10.3 -29.5°
Enters shadow 21:23:21 24° 312° (NW) 1,052 8.9 -29.7°
